Yukon, OK

7:51 AM CDT on September 29, 2016 (GMT -0500)
Oklahoma City / Page Muni

Weather History for KRCE - December, 2013

Change the Weather History Date:

Friday, December 6, 2013

  Actual Average (KOKC) Record (KOKC)
Temperature  
Mean Temperature 16 °F 42 °F  
Max Temperature 23 °F 53 °F 77 °F (1939)
Min Temperature 8 °F 32 °F 4 °F (1950)
Degree Days  
Heating Degree Days 48 23  
Month to date heating degree days 131  
Since 1 July heating degree days 730  
Moisture  
Dew Point 9 °F    
Average Humidity 74    
Maximum Humidity 93    
Minimum Humidity 54    
Precipitation  
Precipitation 4.36 in 0.06 in 2.78 in (1892)
Month to date precipitation 0.38  
Year to date precipitation 35.02  
Snow  
Snow 0.00 in 0.00 in 3.70 in (1942)
Month to date snowfall 0.2  
Since 1 July snowfall 0.6  
Snow Depth -    
Sea Level Pressure  
Sea Level Pressure 30.39 in    
Wind  
Wind Speed 16 mph (North)    
Max Wind Speed 20 mph    
Max Gust Speed 26 mph    
Visibility 7 miles    
Events Snow    
T = Trace of Precipitation, MM = Missing Value Source: NWS Daily Summary

Daily Weather History Graph

Daily Weather History Graph

Search for Another Location

Airport or City:

Trip Planner

Search our weather history database for the weather conditions in past years. The results will help you decide how hot, cold, wet, or windy it might be!

Date:

Astronomy

Dec. 06, 2013 Rise Set
Actual Time 7:26 AM CST 5:18 PM CST
Civil Twilight 6:58 AM CST 5:46 PM CST
Nautical Twilight 6:26 AM CST 6:18 PM CST
Astronomical Twilight 5:55 AM CST 6:48 PM CST
Moon 10:38 AM CST (12/6) 9:45 PM CST (12/6)
Length of Visible Light 10h 47m
Length of Day
9h 51m
Waxing Crescent, 19% of the Moon is Illuminated
Dec 6
Waxing Crescent
Dec 9
First Quarter
Dec 17
Full
Dec 25
Last Quarter
Jan 1
New

Hourly Weather History & Observations

Time (CST) Temp. Windchill Dew Point Humidity Pressure Visibility Wind Dir Wind Speed Gust Speed Precip Events Conditions
12:15 AM 17.6 °F 2.2 °F 14.0 °F 86% 30.29 in 2.5 mi North 17.3 mph 24.2 mph 0.03 in Snow Light Snow
12:35 AM 17.6 °F 2.7 °F 14.0 °F 86% 30.28 in 1.2 mi North 16.1 mph 21.9 mph 0.12 in Snow Light Snow
12:55 AM 17.6 °F 2.7 °F 14.0 °F 86% 30.27 in 1.0 mi North 16.1 mph 24.2 mph 0.26 in Snow Light Snow
1:15 AM 17.6 °F 3.2 °F 15.8 °F 93% 30.26 in 1.2 mi North 15.0 mph 23.0 mph 0.07 in Snow Light Snow
1:35 AM 17.6 °F 3.2 °F 15.8 °F 93% 30.27 in 1.2 mi North 15.0 mph - 0.16 in Snow Light Snow
1:55 AM 17.6 °F 2.7 °F 14.0 °F 86% 30.27 in 1.2 mi North 16.1 mph - 0.28 in Snow Light Snow
2:15 AM 17.6 °F 2.2 °F 14.0 °F 86% 30.28 in 1.8 mi North 17.3 mph 20.7 mph 0.04 in Snow Light Snow
2:35 AM 15.8 °F 0.3 °F 14.0 °F 93% 30.27 in 1.0 mi North 16.1 mph - 0.26 in Snow Light Snow
2:55 AM 15.8 °F -0.6 °F 14.0 °F 93% 30.28 in 0.8 mi North 18.4 mph 25.3 mph 0.77 in Snow Light Snow
3:15 AM 15.8 °F -0.2 °F 14.0 °F 93% 30.29 in 1.0 mi North 17.3 mph 23.0 mph 0.31 in Snow Light Snow
3:35 AM 15.8 °F -0.2 °F 14.0 °F 93% 30.30 in 2.0 mi North 17.3 mph - 0.62 in Snow Light Snow
3:55 AM 15.8 °F -1.1 °F 14.0 °F 93% 30.29 in 1.0 mi North 19.6 mph - 0.85 in Snow Light Snow
4:15 AM 15.8 °F -0.2 °F 14.0 °F 93% 30.28 in 0.8 mi North 17.3 mph - 0.45 in Snow Light Snow
4:35 AM 15.8 °F -1.1 °F 14.0 °F 93% 30.27 in 1.0 mi North 19.6 mph 26.5 mph 0.99 in Snow Light Snow
4:55 AM 15.8 °F -0.2 °F 14.0 °F 93% 30.28 in 1.2 mi North 17.3 mph - 1.35 in Snow Light Snow
5:15 AM 15.8 °F -0.2 °F 14.0 °F 93% 30.32 in 2.5 mi North 17.3 mph - 0.04 in Snow Light Snow
5:35 AM 15.8 °F -0.2 °F 14.0 °F 93% 30.32 in 1.0 mi NNE 17.3 mph 20.7 mph 0.27 in Snow Light Snow
5:55 AM 15.8 °F -0.2 °F 14.0 °F 93% 30.32 in 1.0 mi North 17.3 mph - 0.59 in Snow Light Snow
6:15 AM 15.8 °F 1.4 °F 14.0 °F 93% 30.31 in 1.8 mi NNE 13.8 mph - 0.11 in Snow Light Snow
6:35 AM 15.8 °F 0.3 °F 14.0 °F 93% 30.30 in 3.0 mi North 16.1 mph - 0.17 in Snow Light Snow
6:55 AM 15.8 °F 0.3 °F 14.0 °F 93% 30.32 in 2.5 mi North 16.1 mph 19.6 mph 0.23 in Snow Light Snow
7:15 AM 15.8 °F 1.4 °F 14.0 °F 93% 30.34 in 4.0 mi North 13.8 mph - 0.01 in Snow Light Snow
7:35 AM 15.8 °F 1.4 °F 14.0 °F 93% 30.36 in 5.0 mi North 13.8 mph - 0.03 in Snow Light Snow
7:55 AM 15.8 °F -0.2 °F 14.0 °F 93% 30.36 in 7.0 mi North 17.3 mph 20.7 mph 0.03 in Snow Light Snow
8:15 AM 15.8 °F 0.9 °F 14.0 °F 93% 30.37 in 7.0 mi North 15.0 mph 21.9 mph N/A Snow Light Snow
8:35 AM 15.8 °F -0.6 °F 14.0 °F 93% 30.37 in 8.0 mi North 18.4 mph 24.2 mph N/A Snow Light Snow
8:55 AM 15.8 °F -0.6 °F 10.4 °F 79% 30.36 in 10.0 mi North 18.4 mph 25.3 mph N/A   Overcast
9:15 AM 15.8 °F -0.6 °F 10.4 °F 79% 30.38 in 10.0 mi North 18.4 mph 21.9 mph N/A   Mostly Cloudy
9:35 AM 17.6 °F 2.2 °F 10.4 °F 73% 30.40 in 10.0 mi North 17.3 mph 24.2 mph N/A   Overcast
9:55 AM 17.6 °F 2.2 °F 10.4 °F 73% 30.40 in 10.0 mi North 17.3 mph - N/A   Overcast
10:15 AM 17.6 °F 1.3 °F 10.4 °F 73% 30.40 in 10.0 mi NNE 19.6 mph 23.0 mph N/A   Overcast
10:35 AM 17.6 °F 2.7 °F 8.6 °F 68% 30.42 in 10.0 mi North 16.1 mph 20.7 mph N/A   Overcast
10:55 AM 17.6 °F 3.2 °F 8.6 °F 68% 30.42 in 10.0 mi North 15.0 mph 21.9 mph N/A   Overcast
11:15 AM 19.4 °F 4.1 °F 8.6 °F 63% 30.43 in 10.0 mi North 18.4 mph - N/A   Overcast
11:35 AM 19.4 °F 4.5 °F 8.6 °F 63% 30.44 in 10.0 mi North 17.3 mph 23.0 mph N/A   Overcast
11:55 AM 19.4 °F 3.6 °F 8.6 °F 63% 30.43 in 10.0 mi North 19.6 mph 24.2 mph N/A   Overcast
12:15 PM 19.4 °F 4.5 °F 8.6 °F 63% 30.42 in 10.0 mi North 17.3 mph 21.9 mph N/A   Mostly Cloudy
12:35 PM 19.4 °F 4.5 °F 8.6 °F 63% 30.42 in 10.0 mi North 17.3 mph - N/A   Mostly Cloudy
12:55 PM 19.4 °F 4.1 °F 8.6 °F 63% 30.42 in 10.0 mi North 18.4 mph 24.2 mph N/A   Partly Cloudy
1:15 PM 19.4 °F 5.0 °F 8.6 °F 63% 30.42 in 10.0 mi North 16.1 mph 23.0 mph N/A   Clear
1:35 PM 21.2 °F 6.8 °F 8.6 °F 58% 30.42 in 10.0 mi North 17.3 mph - N/A   Scattered Clouds
1:55 PM 21.2 °F 7.3 °F 8.6 °F 58% 30.41 in 10.0 mi NNE 16.1 mph - N/A   Mostly Cloudy
2:15 PM 23.0 °F 9.2 °F 8.6 °F 54% 30.41 in 10.0 mi North 17.3 mph - N/A   Scattered Clouds
2:35 PM 21.2 °F 7.3 °F 6.8 °F 54% 30.41 in 10.0 mi North 16.1 mph 23.0 mph N/A   Partly Cloudy
2:55 PM 21.2 °F 6.0 °F 6.8 °F 54% 30.42 in 10.0 mi North 19.6 mph 24.2 mph N/A   Clear
3:15 PM 19.4 °F 4.1 °F 6.8 °F 58% 30.42 in 10.0 mi North 18.4 mph 24.2 mph N/A   Scattered Clouds
3:35 PM 19.4 °F 4.1 °F 6.8 °F 58% 30.43 in 10.0 mi North 18.4 mph - N/A   Overcast
3:55 PM 19.4 °F 4.5 °F 5.0 °F 54% 30.43 in 10.0 mi North 17.3 mph - N/A   Overcast
4:15 PM 19.4 °F 4.1 °F 6.8 °F 58% 30.44 in 10.0 mi North 18.4 mph 23.0 mph N/A   Overcast
4:35 PM 19.4 °F 5.5 °F 5.0 °F 54% 30.45 in 10.0 mi North 15.0 mph - N/A   Overcast
5:55 PM 17.6 °F 6.4 °F 5.0 °F 58% 30.47 in 10.0 mi North 9.2 mph - N/A   Unknown
6:15 PM 17.6 °F 5.0 °F 5.0 °F 58% 30.47 in 10.0 mi North 11.5 mph - N/A   Unknown
6:35 PM 15.8 °F 3.4 °F 5.0 °F 62% 30.48 in 10.0 mi NNE 10.4 mph - N/A   Unknown
6:55 PM 15.8 °F 2.7 °F 3.2 °F 58% 30.48 in 10.0 mi North 11.5 mph - N/A   Unknown
7:15 PM 15.8 °F 2.7 °F 3.2 °F 58% 30.49 in 10.0 mi North 11.5 mph - N/A   Unknown
7:35 PM 14.0 °F 1.2 °F 1.4 °F 57% 30.51 in 10.0 mi North 10.4 mph - N/A   Unknown
7:55 PM 14.0 °F 2.0 °F 1.4 °F 57% 30.52 in 10.0 mi North 9.2 mph - N/A   Unknown
8:15 PM 14.0 °F 0.5 °F 1.4 °F 57% 30.52 in 10.0 mi NNE 11.5 mph - N/A   Unknown
8:35 PM 14.0 °F -0.2 °F 1.4 °F 57% 30.52 in 10.0 mi NNE 12.7 mph - N/A   Unknown
8:55 PM 14.0 °F -0.8 °F 1.4 °F 57% 30.53 in 10.0 mi NNE 13.8 mph - N/A   Unknown
9:15 PM 14.0 °F -1.4 °F 1.4 °F 57% 30.53 in 10.0 mi NNE 15.0 mph - N/A   Unknown
9:35 PM 14.0 °F -1.4 °F 1.4 °F 57% 30.53 in 10.0 mi NNE 15.0 mph - N/A   Unknown
9:55 PM - - - N/A% - - North - - N/A   Unknown
10:15 PM - - - N/A% - - North - - N/A   Unknown
10:35 PM - - - N/A% - - North - - N/A   Unknown
10:55 PM - - - N/A% - - North - - N/A   Unknown
11:15 PM 10.4 °F -3.3 °F -0.4 °F 62% 30.57 in 10.0 mi NNE 10.4 mph - N/A   Unknown
11:35 PM - - - N/A% - - North - - N/A   Unknown
11:55 PM 8.6 °F -6.3 °F -0.4 °F 67% 30.57 in 10.0 mi NNE 11.5 mph - N/A   Unknown